Location: Newark
(48.5156°N, 1.8989°W)
Time: 02:34:36
(UTC+00:00)

Vanguard 1 Rocket - Pass Details

Date: 16 November 2019
Orbit: 650 x 4226 km, 34.3° (Epoch: 09 December)

Event Time Altitude Azimuth Distance (km) Brightness Sun altitude
Exits shadow 05:21:56 - 213° (SSW) 2,234 9.2 -18.8°
Reaches altitude 10° 05:22:10 10° 211° (SSW) 2,180 9.1 -18.8°
Maximum altitude 05:25:31 18° 166° (SSE) 1,904 9.3 -18.2°
Drops below altitude 10° 05:29:46 10° 124° (SE) 2,871 10.9 -17.5°
Sets 05:34:07 0° 108° (ESE) 4,376 12.6 -16.8°
